Regional Weather Roundup
Issued by NWS

Home | Current Version | Previous Version | Text Only | Print | Product List | Glossary On
Versions: 1 2 3 4 5 6 7 8 9 10 11 12 13 14 15 16 17 18 19 20 21 22 23 24 25 26 27 28 29 30 31 32 33 34 35 36 37 38 39 40 41 42 43 44 45 46 47 48 49 50
000
ASUS44 KMEG 070400
RWRTN
TENNESSEE HOURLY STATE WEATHER ROUNDUP
NATIONAL WEATHER SERVICE MEMPHIS TN
1100 PM CDT WED MAY 06 2015

TNZ002-004-019-021-049-052-054-088>092-070500-
WEST TENNESSEE

CITY           SKY/WX    TMP DP  RH WIND       PRES   REMARKS
MEMPHIS INTL   CLEAR     74  53  48 SE7       30.05S
NWS MEMPHIS      N/A     64 N/A N/A MISG        N/A
JACKSON        CLEAR     66  52  60 S5        30.07S
DYERSBURG      CLEAR     68  43  40 SE3       30.07S
PARIS          CLEAR     63  52  67 SE3       30.09S
LEXINGTON      CLEAR     57  54  88 CALM      30.08S
$$

TNZ008-025-027-028-033-062-065-066-070500-
NORTH MIDDLE TENNESSEE

CITY           SKY/WX    TMP DP  RH WIND       PRES   REMARKS
NASHVILLE      CLEAR     68  58  70 S3        30.11S
CLARKSVILLE    CLEAR     64  58  80 CALM      30.09R
CROSSVILLE     PTCLDY    63  52  67 SW5       30.17S
$$

TNZ061-075-076-078-094-096-097-070500-
SOUTH MIDDLE TENNESSEE

CITY           SKY/WX    TMP DP  RH WIND       PRES   REMARKS
TULLAHOMA      CLEAR     59  52  77 CALM      30.15S
WINCHESTER     CLEAR     61  54  77 CALM      30.14S
SHELBYVILLE    CLEAR     61  55  82 E3        30.13S
$$

TNZ017-018-042-046-047-070500-
NORTHEAST TENNESSEE

CITY           SKY/WX    TMP DP  RH WIND       PRES   REMARKS
TRI CITIES     PTCLDY    61  57  87 N3        30.17S
$$

TNZ012-013-036-069-073-074-070500-
CENTRAL EAST TENNESSEE

CITY           SKY/WX    TMP DP  RH WIND       PRES   REMARKS
KNOXVILLE      MOCLDY    70  57  63 CALM      30.13R
OAK RIDGE      PTCLDY    70  58  65 CALM      30.14R
GATLINBURG     PTCLDY    64  61  88 CALM      30.13S
$$

TNZ083-085-099-070500-
SOUTHEAST TENNESSEE

CITY           SKY/WX    TMP DP  RH WIND       PRES   REMARKS
CHATTANOOGA    PTCLDY    65  58  78 CALM      30.13S
$$

SKY/WX REPORTED AS FAIR MEANS FEW OR NO CLOUDS BELOW
12 THOUSAND FEET.



USA.gov is the U.S. government's official web portal to all federal, state and local government web resources and services.